Weather in Kirov

Russia / Kaluga Oblast     54°04′46″N   34°18′28″E
temp.,
°C
wind,
m/s
gust,
m/s
humid.,
%
clouds,
%
prec.,
mm/h
press.,
hPa
HPBL,
m
25 may, wed
wed2500:00+6ene2273100 0.0 101444
03:00+3e239628 0.0 101548
06:00+4ene1284100 0.0 1016107
09:00+9nne1264100 0.0 1016615
12:00+13nnw245361 0.0 10161255
15:00+16nw46455 0.0 10151763
18:00+16nw37485 0.0 10142031
21:00+10wsw22802 0.0 101532
26 may, thu
thu2600:00+8wsw22894 0.0 101537
03:00+8sw229499 0.4 101434
06:00+10s239451 0.4 101185
09:00+14s4972100 0.4 1010526
12:00+14s4966100 0.0 1006975
15:00+11se41098100 8.4 1002821
18:00+11w51298100 4.1 1001645
21:00+9wnw5129791 4.4 1005670
27 may, fri
fri2700:00+7sw3998100 0.0 1005226
03:00+10w6129388 0.2 1005764
06:00+8w51294100 0.4 1006905
09:00+9w6119295 0.4 1007821
12:00+14w7106479 0.2 10071523
15:00+16wsw6104733 0.3 10072126
18:00+11wsw51186100 0.3 1006779
21:00+11s41398100 2.0 1003764
28 may, sat
sat2800:00+12wsw41195100 14.6 1000676
03:00+9wsw61296100 15.3 10021145
06:00+8wsw6119278 0.3 1004842
09:00+9wsw6107659 0.3 10051090
12:00+13wsw7105545 0.3 10061920
15:00+13wsw6106242 0.8 10061760
18:00+12sw4979100 1.1 10071173
21:00+9sw41092100 2.4 1008459
29 may, sun
sun2900:00+7sw4109631 0.1 1009343
03:00+6sw4119825 0.1 1011405
06:00+6sw3109723 0.0 1012382
09:00+10sw5783100 0.0 1013805
12:00+10sw477745 0.3 1014920
15:00+12wsw487772 0.8 10141152
18:00+13sw59755 0.5 10151138
21:00+9sw28965 0.8 1017183